Stevensville, MD

2:35 AM EST on February 22, 2017 (GMT -0500)
Stevensville

Weather History for KW29 - November, 2013

Change the Weather History Date:

Saturday, November 23, 2013

  Actual Average (KESN) Record (KESN)
Temperature  
Mean Temperature 44 °F -  
Max Temperature 55 °F 51 °F 70 °F (1953)
Min Temperature 33 °F 30 °F 18 °F (1964)
Degree Days  
Heating Degree Days 21    
Moisture  
Dew Point 28 °F    
Average Humidity 52    
Maximum Humidity 94    
Minimum Humidity 30    
Precipitation  
Precipitation 0.00 in - - ()
Sea Level Pressure  
Sea Level Pressure 30.08 in    
Wind  
Wind Speed 14 mph (NW)    
Max Wind Speed 28 mph    
Max Gust Speed 36 mph    
Visibility 10 miles    
Events      
Averages and records for this station are not official NWS values.
T = Trace of Precipitation, MM = Missing Value Source: NWS Daily Summary

Daily Weather History Graph

Daily Weather History Graph

Search for Another Location

Airport or City:

Trip Planner

Search our weather history database for the weather conditions in past years. The results will help you decide how hot, cold, wet, or windy it might be!

Date:

Astronomy

Nov. 23, 2013 Rise Set
Actual Time 6:57 AM EST 4:46 PM EST
Civil Twilight 6:28 AM EST 5:15 PM EST
Nautical Twilight 5:55 AM EST 5:47 PM EST
Astronomical Twilight 5:23 AM EST 6:19 PM EST
Moon 10:11 PM EST (11/23) 11:13 AM EST (11/23)
Length of Visible Light 10h 47m
Length of Day
9h 49m
Waning Gibbous, 70% of the Moon is Illuminated
Nov 23
Waning Gibbous
Nov 25
Last Quarter
Dec 2
New
Dec 9
First Quarter
Dec 17
Full

Hourly Weather History & Observations

Time (EST) Temp. Windchill Dew Point Humidity Pressure Visibility Wind Dir Wind Speed Gust Speed Precip Events Conditions
12:14 AM 53.6 °F - 51.8 °F 94% 30.01 in 10.0 mi NW 6.9 mph - N/A   Clear
12:34 AM 53.6 °F - 50.0 °F 88% 30.01 in 10.0 mi NW 10.4 mph - N/A   Clear
12:54 AM 55.4 °F - 48.2 °F 77% 30.02 in 10.0 mi NW 15.0 mph 21.9 mph N/A   Clear
1:14 AM 53.6 °F - 46.4 °F 77% 30.02 in 10.0 mi NW 16.1 mph 26.5 mph N/A   Clear
1:34 AM 53.6 °F - 44.6 °F 72% 30.02 in 10.0 mi NW 17.3 mph 24.2 mph N/A   Clear
1:54 AM 53.6 °F - 44.6 °F 72% 30.03 in 10.0 mi NW 18.4 mph 25.3 mph N/A   Clear
2:14 AM 53.6 °F - 44.6 °F 72% 30.05 in 10.0 mi NW 12.7 mph 24.2 mph N/A   Clear
2:34 AM 51.8 °F - 42.8 °F 71% 30.05 in 10.0 mi NW 13.8 mph 19.6 mph N/A   Clear
2:54 AM 51.8 °F - 42.8 °F 71% 30.06 in 10.0 mi NW 13.8 mph 20.7 mph N/A   Scattered Clouds
3:14 AM 51.8 °F - 42.8 °F 71% 30.05 in 10.0 mi NW 12.7 mph 19.6 mph N/A   Scattered Clouds
3:34 AM 51.8 °F - 41.0 °F 67% 30.05 in 10.0 mi NW 13.8 mph 21.9 mph N/A   Clear
3:54 AM 50.0 °F - 37.4 °F 62% 30.05 in 10.0 mi NNW 16.1 mph 21.9 mph N/A   Clear
4:14 AM 50.0 °F - 37.4 °F 62% 30.06 in 10.0 mi NW 13.8 mph 21.9 mph N/A   Clear
4:34 AM 48.2 °F - 35.6 °F 62% 30.07 in 10.0 mi NW 17.3 mph 26.5 mph N/A   Clear
4:54 AM 46.4 °F 39.5 °F 35.6 °F 66% 30.08 in 10.0 mi NW 17.3 mph 23.0 mph N/A   Clear
5:14 AM 46.4 °F 39.2 °F 35.6 °F 66% 30.08 in 10.0 mi NW 18.4 mph 25.3 mph N/A   Clear
5:34 AM 46.4 °F 40.1 °F 33.8 °F 62% 30.09 in 10.0 mi NW 15.0 mph 28.8 mph N/A   Clear
5:54 AM 44.6 °F 36.6 °F 32.0 °F 61% 30.10 in 10.0 mi NW 19.6 mph 26.5 mph N/A   Clear
6:14 AM 44.6 °F 38.4 °F 32.0 °F 61% 30.10 in 10.0 mi NW 12.7 mph 23.0 mph N/A   Clear
6:34 AM 44.6 °F 37.4 °F 32.0 °F 61% 30.11 in 10.0 mi NW 16.1 mph 21.9 mph N/A   Clear
6:54 AM 42.8 °F 36.6 °F 30.2 °F 61% 30.13 in 10.0 mi NW 11.5 mph 18.4 mph N/A   Clear
7:15 AM 42.8 °F 36.2 °F 30.2 °F 61% 30.13 in 10.0 mi NW 12.7 mph 17.3 mph N/A   Clear
7:35 AM 42.8 °F 36.2 °F 30.2 °F 61% 30.13 in 10.0 mi NNW 12.7 mph 20.7 mph N/A   Clear
7:55 AM 42.8 °F 35.8 °F 28.4 °F 57% 30.13 in 10.0 mi NNW 13.8 mph 25.3 mph N/A   Clear
8:15 AM 42.8 °F 36.6 °F 30.2 °F 61% 30.14 in 10.0 mi NNW 11.5 mph 17.3 mph N/A   Clear
8:35 AM 42.8 °F 37.5 °F 30.2 °F 61% 30.13 in 10.0 mi NW 9.2 mph - N/A   Clear
8:55 AM 44.6 °F 38.8 °F 28.4 °F 53% 30.14 in 10.0 mi NW 11.5 mph 16.1 mph N/A   Clear
9:15 AM 44.6 °F 39.2 °F 28.4 °F 53% 30.14 in 10.0 mi NNW 10.4 mph 18.4 mph N/A   Clear
9:35 AM 44.6 °F 39.7 °F 26.6 °F 49% 30.14 in 10.0 mi NW 9.2 mph - N/A   Clear
9:55 AM 44.6 °F 39.7 °F 26.6 °F 49% 30.14 in 10.0 mi NNW 9.2 mph - N/A   Clear
10:15 AM 44.6 °F 39.2 °F 26.6 °F 49% 30.13 in 10.0 mi NNW 10.4 mph - N/A   Clear
10:35 AM 44.6 °F 40.2 °F 24.8 °F 46% 30.13 in 10.0 mi NW 8.1 mph 17.3 mph N/A   Clear
10:55 AM 46.4 °F 41.1 °F 26.6 °F 46% 30.12 in 10.0 mi NNW 11.5 mph 17.3 mph N/A   Clear
11:15 AM 46.4 °F 41.9 °F 23.0 °F 40% 30.11 in 10.0 mi NW 9.2 mph - N/A   Clear
11:35 AM 46.4 °F 42.4 °F 26.6 °F 46% 30.10 in 10.0 mi NW 8.1 mph - N/A   Clear
11:55 AM 46.4 °F 40.7 °F 26.6 °F 46% 30.09 in 10.0 mi NNW 12.7 mph - N/A   Clear
12:15 PM 46.4 °F 41.5 °F 26.6 °F 46% 30.08 in 10.0 mi NNW 10.4 mph - N/A   Clear
12:35 PM 46.4 °F 41.9 °F 24.8 °F 43% 30.07 in 10.0 mi NNW 9.2 mph - N/A   Clear
12:55 PM 46.4 °F 42.9 °F 23.0 °F 40% 30.06 in 10.0 mi NNW 6.9 mph - N/A   Clear
1:15 PM 46.4 °F 41.9 °F 19.4 °F 34% 30.05 in 10.0 mi NW 9.2 mph - N/A   Clear
1:35 PM 46.4 °F 41.9 °F 21.2 °F 37% 30.04 in 10.0 mi NW 9.2 mph - N/A   Clear
1:55 PM 48.2 °F - 21.2 °F 34% 30.03 in 10.0 mi NW 10.4 mph - N/A   Clear
2:15 PM 50.0 °F - 19.4 °F 30% 30.03 in 10.0 mi NW 11.5 mph 16.1 mph N/A   Clear
2:35 PM 48.2 °F - 21.2 °F 34% 30.03 in 10.0 mi NW 10.4 mph - N/A   Clear
2:55 PM 46.4 °F 40.1 °F 21.2 °F 37% 30.04 in 10.0 mi NW 15.0 mph - N/A   Clear
3:15 PM 46.4 °F 40.4 °F 21.2 °F 37% 30.05 in 10.0 mi WNW 13.8 mph - N/A   Clear
3:35 PM 46.4 °F 39.2 °F 21.2 °F 37% 30.04 in 10.0 mi NW 18.4 mph 24.2 mph N/A   Clear
3:55 PM 44.6 °F 38.1 °F 21.2 °F 39% 30.05 in 10.0 mi NW 13.8 mph 18.4 mph N/A   Clear
4:15 PM 44.6 °F 38.8 °F 21.2 °F 39% 30.05 in 10.0 mi WNW 11.5 mph - N/A   Clear
4:36 PM 44.6 °F 39.7 °F 21.2 °F 39% 30.05 in 10.0 mi NW 9.2 mph - N/A   Clear
4:56 PM 44.6 °F 39.2 °F 21.2 °F 39% 30.05 in 10.0 mi NW 10.4 mph - N/A   Clear
5:16 PM 44.6 °F 40.2 °F 21.2 °F 39% 30.05 in 10.0 mi NW 8.1 mph - N/A   Clear
5:36 PM 44.6 °F 38.4 °F 23.0 °F 43% 30.05 in 10.0 mi NW 12.7 mph 17.3 mph N/A   Clear
5:56 PM 44.6 °F 37.4 °F 21.2 °F 39% 30.05 in 10.0 mi WNW 16.1 mph 20.7 mph N/A   Clear
6:16 PM 44.6 °F 37.8 °F 23.0 °F 43% 30.06 in 10.0 mi NW 15.0 mph 19.6 mph N/A   Clear
6:36 PM 44.6 °F 36.1 °F 21.2 °F 39% 30.05 in 10.0 mi WNW 21.9 mph 28.8 mph N/A   Clear
6:56 PM 42.8 °F 33.3 °F 21.2 °F 42% 30.06 in 10.0 mi WNW 24.2 mph 32.2 mph N/A   Clear
7:16 PM 42.8 °F 34.3 °F 19.4 °F 39% 30.07 in 10.0 mi WNW 19.6 mph 29.9 mph N/A   Clear
7:36 PM 42.8 °F 34.0 °F 19.4 °F 39% 30.07 in 10.0 mi WNW 20.7 mph 25.3 mph N/A   Clear
7:56 PM 42.8 °F 33.8 °F 17.6 °F 36% 30.08 in 10.0 mi WNW 21.9 mph 29.9 mph N/A   Clear
8:16 PM 42.8 °F 33.5 °F 17.6 °F 36% 30.09 in 10.0 mi WNW 23.0 mph 29.9 mph N/A   Clear
8:36 PM 41.0 °F 31.6 °F 17.6 °F 39% 30.10 in 10.0 mi WNW 20.7 mph 31.1 mph N/A   Scattered Clouds
8:56 PM 41.0 °F 31.6 °F 21.2 °F 45% 30.10 in 10.0 mi NW 20.7 mph 28.8 mph N/A   Scattered Clouds
9:16 PM 37.4 °F 25.9 °F 24.8 °F 60% 30.11 in 10.0 mi NW 25.3 mph 31.1 mph N/A   Scattered Clouds
9:36 PM 37.4 °F 25.4 °F 21.2 °F 52% 30.12 in 10.0 mi NW 27.6 mph 35.7 mph N/A   Clear
9:56 PM 37.4 °F 25.6 °F 21.2 °F 52% 30.13 in 10.0 mi NW 26.5 mph 35.7 mph N/A   Clear
10:16 PM 37.4 °F 26.4 °F 21.2 °F 52% 30.14 in 10.0 mi NW 23.0 mph 28.8 mph N/A   Clear
10:36 PM 35.6 °F 24.5 °F 21.2 °F 56% 30.15 in 10.0 mi WNW 20.7 mph 25.3 mph N/A   Clear
10:56 PM 35.6 °F 25.2 °F 19.4 °F 52% 30.16 in 10.0 mi NW 18.4 mph 23.0 mph N/A   Clear
11:16 PM 35.6 °F 25.9 °F 19.4 °F 52% 30.17 in 10.0 mi WNW 16.1 mph 23.0 mph N/A   Scattered Clouds
11:36 PM 33.8 °F 24.3 °F 17.6 °F 52% 30.18 in 10.0 mi NW 13.8 mph 27.6 mph N/A   Scattered Clouds
11:56 PM 33.8 °F 22.5 °F 14.0 °F 44% 30.18 in 10.0 mi NW 19.6 mph 28.8 mph N/A   Mostly Cloudy